SCP
1 1 1 1 1 1 1 1 0 0 0 0 0 0 1 0 0 0 0 0 0 0 0 0 0 0 0 0 0 0 0 0 0 0 0 0 0 0 0 0 0 0 0
1 1 1 1 1 1 1 1 0 0 0 0 0 0 1 1 1 1 1 0 0 0 0 0 0 0 0 0 0 0 0 0 0 0 0 0 0 0 0 0 0 0 0
1 1 1 1 1 1 1 1 1 1 0 0 0 1 1 1 1 1 1 1 1 0 0 0 0 0 0 0 0 0 0 0 0 0 0 0 0 0 0 0 0 0 0
1 1 1 1 1 1 1 1 1 1 1 1 1 1 1 1 1 1 1 1 1 1 1 1 1 0 0 0 0 0 0 0 0 0 0 0 0 0 0 0 0 0 0
1 1 1 1 1 1 1 1 1 1 1 1 1 1 1 1 1 1 1 1 1 1 1 1 1 1 0 0 1 0 0 0 0 0 0 0 0 0 0 0 0 0 0
1 1 1 1 1 1 1 1 1 1 1 1 1 1 1 1 1 1 1 1 1 1 1 1 1 1 0 0 0 0 0 0 0 0 0 0 0 0 0 0 0 0 0
1 1 1 1 1 1 0 0 1 1 1 1 1 1 1 1 1 0 0 0 1 1 1 1 1 1 0 0 0 0 0 0 0 0 0 0 0 0 0 0 0 0 0
0 0 0 0 0 0 0 0 0 1 1 1 1 1 1 0 0 0 0 0 0 0 0 0 0 0 0 0 0 0 0 0 0 0 0 0 0 0 0 0 0 0 0
0 0 0 0 0 0 0 0 0 0 0 0 1 0 0 0 0 0 0 0 0 0 0 0 0 0 0 0 0 0 0 0 0 0 0 0 0 0 0 0 0 0 0
0 0 0 0 0 0 0 0 0 0 0 0 0 0 0 0 0 0 0 0 0 0 0 0 0 0 0 0 0 0 0 0 0 0 0 0 0 0 0 0 0 0 0
0 0 0 0 0 0 0 0 0 0 0 0 0 0 0 0 0 0 0 0 0 0 0 0 0 0 0 0 0 0 0 0 0 0 0 0 0 0 0 0 0 0 0
0 0 0 0 0 0 0 0 0 0 0 0 0 0 0 0 0 0 0 0 0 0 0 0 0 0 0 0 0 0 0 0 0 0 0 0 0 0 0 0 0 0 0
0 0 0 0 0 0 0 0 0 0 0 0 0 0 0 0 0 0 0 0 0 0 0 0 0 0 0 0 0 0 0 0 0 0 0 0 0 0 0 0 0 0 0
0 0 0 0 0 0 0 0 0 0 0 0 0 0 0 0 0 0 0 0 0 0 0 0 0 0 0 0 0 0 0 0 0 0 0 0 0 0 0 0 0 0 0
0 0 0 0 0 0 0 0 0 0 0 0 0 0 0 0 0 0 0 0 0 0 0 0 0 0 0 0 0 0 0 0 0 0 0 0 0 0 0 0 0 0 0
0 0 0 0 0 0 0 0 0 0 0 0 0 0 0 0 0 0 0 0 0 0 0 0 0 0 0 0 0 0 0 0 0 0 0 0 0 0 0 0 0 0 0
0 0 0 0 0 0 0 0 0 0 0 0 0 0 0 0 0 0 0 0 0 0 0 0 0 0 0 0 0 0 0 0 0 0 0 0 0 0 0 0 0 0 0
0 0 0 0 0 0 0 0 0 0 0 0 0 0 0 0 0 0 0 0 0 0 0 0 0 0 0 0 0 0 0 0 0 0 0 0 0 0 0 0 0 0 0
0 0 0 0 0 0 0 0 0 0 0 0 0 0 0 0 0 0 0 0 0 0 0 0 0 0 0 0 0 0 0 0 0 0 0 0 0 0 0 0 0 0 0
0 0 0 0 0 0 0 0 0 0 0 0 0 0 0 0 0 0 0 0 0 0 0 0 0 0 0 0 0 0 0 0 0 0 0 0 0 0 0 0 0 0 0
0 0 0 0 0 0 0 0 0 0 0 0 0 0 0 0 0 0 0 0 0 0 0 0 0 0 0 0 0 0 0 0 0 0 0 0 0 0 0 0 0 0 0
0 0 0 0 0 0 0 0 0 0 0 0 0 0 0 0 0 0 0 0 0 0 0 0 0 0 0 0 0 0 0 0 0 0 0 0 0 0 0 0 0 0 0
0 0 0 0 0 0 0 0 0 0 0 0 0 0 0 0 0 0 0 0 0 0 0 0 0 0 0 0 0 0 0 0 0 0 0 0 0 0 0 0 0 0 0
0 0 0 0 0 0 0 0 0 0 0 0 0 0 0 0 0 0 0 0 0 0 0 0 0 0 0 0 0 0 0 0 0 0 0 0 0 0 0 0 0 0 0
0 0 0 0 0 0 0 0 0 0 0 0 0 0 0 0 0 0 0 0 0 0 0 0 0 0 0 0 0 0 0 0 0 0 0 0 0 0 0 0 0 0 0
0 0 0 0 0 0 0 0 0 0 0 0 0 0 0 0 0 0 0 0 0 0 0 0 0 0 0 0 0 0 0 0 0 0 0 0 0 0 0 0 0 0 0
Wind_Speed
9 8 7 6 6 6 5 6 6 5 5 7 7 7 7 7 6 5 5 4 5 4 4 4 4 3 2 2 1 2 2 3 4 4 3 2 2 3 3 4 5 6 6
9 8 7 6 5 6 6 6 5 5 5 6 7 7 8 7 7 7 7 7 6 6 6 5 6 4 5 4 3 3 3 3 4 5 3 3 5 5 4 5 5 6 6
8 7 6 5 5 5 5 4 4 3 4 4 5 6 7 6 6 7 7 6 6 6 6 6 6 5 6 4 5 4 4 4 4 4 5 3 4 4 4 5 6 5 6
6 6 5 4 4 3 2 1 2 2 3 3 4 5 5 5 5 5 5 6 6 6 6 6 7 7 7 7 6 6 5 5 4 4 5 4 4 4 3 5 5 5 6
6 5 4 3 2 2 2 1 1 2 2 2 3 3 3 3 3 3 4 5 5 6 6 6 7 8 9 8 6 6 5 5 5 5 6 5 5 4 5 4 6 6 6
7 5 4 3 2 2 2 2 2 1 0 1 1 2 2 2 2 3 3 3 3 5 6 6 6 7 8 9 10 9 8 7 7 6 6 7 9 7 6 5 5 5 6
8 7 6 6 5 4 4 4 4 3 2 2 1 2 2 1 1 0 1 2 1 2 3 3 4 3 3 3 5 6 7 8 9 7 8 9 8 7 6 6 7 8 9
9 8 7 6 6 5 5 4 3 3 3 3 3 3 3 2 2 2 1 1 1 2 2 2 1 2 5 4 3 4 5 6 7 7 7 8 8 7 7 9 10 9 7
9 7 6 6 6 5 5 4 3 3 3 3 2 3 3 3 4 4 3 2 2 3 3 3 2 2 5 6 4 4 6 7 8 10 11 12 13 14 11 6 6 7 10
7 6 5 5 5 5 4 3 3 3 3 3 4 3 3 3 5 6 5 3 3 3 3 3 4 4 6 6 4 4 7 8 8 10 10 11 10 12 14 11 9 9 9
5 5 5 4 4 4 3 3 4 4 4 4 5 4 4 5 6 8 7 3 2 2 2 2 3 6 8 9 7 5 10 10 8 8 9 8 7 7 8 9 9 10 11
5 5 4 4 3 3 3 3 3 3 4 3 3 3 3 3 4 5 6 5 3 1 1 2 4 9 11 12 9 10 14 11 6 6 6 7 7 8 8 8 9 10 12
6 5 4 4 4 3 3 3 2 2 2 2 2 2 2 2 3 6 6 6 5 2 2 6 9 12 12 8 10 13 10 5 5 6 7 7 7 7 8 7 8 9 10
6 4 4 4 4 4 3 2 2 2 2 2 2 2 1 2 3 3 3 4 5 4 4 7 10 11 8 9 9 7 5 5 5 6 7 7 6 6 7 7 8 7 8
5 4 4 4 3 3 3 2 2 2 3 3 2 2 2 2 3 3 3 3 3 4 4 3 3 4 4 5 5 5 5 5 5 5 6 7 7 7 7 6 6 6 7
4 4 3 3 3 3 3 4 7 6 8 8 7 5 2 2 4 6 7 8 9 8 3 3 4 4 5 5 6 6 5 5 6 6 7 7 8 8 8 7 7 7 9
4 3 2 3 3 3 3 3 3 5 9 10 9 8 6 7 8 8 9 9 8 7 3 4 4 5 5 5 6 6 7 7 7 7 8 8 8 8 8 8 8 8 9
4 4 4 3 3 3 4 3 3 3 3 3 5 8 9 9 10 9 9 7 5 5 3 4 5 5 6 6 6 7 7 8 7 8 8 8 8 9 9 9 8 9 9
4 3 3 3 3 4 4 4 4 4 3 3 3 5 8 8 8 9 7 4 4 5 5 5 6 6 7 7 7 7 8 8 9 9 8 9 8 9 10 9 9 12 11
4 7 6 4 4 4 4 4 4 4 3 3 3 3 5 5 5 6 5 4 4 5 6 6 7 7 7 7 7 8 8 8 9 8 8 9 9 9 10 12 10 10 10
4 5 10 6 4 4 4 3 3 3 3 3 3 4 6 4 4 5 5 5 5 6 6 7 7 8 7 7 7 8 10 9 9 9 9 9 9 10 10 10 11 11 11
4 4 4 4 3 3 3 3 3 3 3 3 3 4 7 4 4 4 5 6 6 6 6 7 7 7 7 8 8 9 9 9 9 9 10 10 10 11 11 11 11 11 10
5 4 4 3 3 4 4 3 3 3 3 3 3 4 4 4 4 5 5 6 6 7 7 7 7 8 7 7 7 8 9 9 9 11 12 12 11 11 11 12 13 13 12
4 4 3 3 3 3 2 3 3 3 3 3 3 4 4 4 5 6 6 6 7 7 7 7 8 11 13 11 8 8 8 10 12 11 14 13 13 12 11 11 12 13 12
4 3 3 2 2 2 2 3 3 3 3 3 4 4 4 5 5 6 6 6 8 8 10 9 8 10 13 15 13 12 13 14 14 13 12 11 12 13 12 13 12 12 12
3 3 2 2 2 2 2 3 3 3 3 4 4 4 4 5 5 6 6 7 8 8 9 9 11 14 15 12 14 17 15 15 15 15 11 10 11 11 11 10 13 12 12
Wind_Direction
194 197 199 199 201 201 203 211 211 209 199 192 192 192 195 200 197 195 208 207 210 226 229 221 232 230 232 237 210 191 186 169 211 263 261 266 248 243 236 230 237 232 234
195 195 200 200 200 205 214 217 211 211 205 196 192 194 202 206 203 202 213 213 212 222 229 228 235 233 232 232 225 227 220 203 204 249 266 261 251 242 238 238 239 236 233
188 190 195 198 197 205 215 219 211 210 212 202 192 200 209 210 209 213 214 217 218 221 221 223 231 227 236 234 229 232 233 231 211 229 257 250 254 249 250 255 250 248 245
170 171 181 191 186 189 196 197 209 205 203 199 197 201 207 210 211 216 215 219 226 230 227 225 225 220 227 229 232 232 231 237 234 238 256 259 257 254 240 252 266 253 251
144 150 165 156 150 146 140 180 199 193 197 196 193 195 205 206 213 218 227 227 228 240 243 241 238 233 232 229 234 230 226 233 236 240 254 262 259 253 244 239 254 263 260
107 108 109 105 101 90 83 76 72 69 114 138 189 187 171 182 174 194 216 239 239 246 251 252 254 250 252 249 249 246 231 232 238 240 248 249 257 250 249 244 249 258 268
93 93 89 86 83 84 85 74 66 64 76 89 95 95 121 135 108 21 285 249 262 271 274 282 290 308 316 302 289 283 269 260 248 245 251 253 259 254 250 253 245 241 249
83 80 80 83 82 75 71 68 63 63 69 67 70 77 74 50 65 63 11 355 354 332 330 339 334 2 14 2 337 319 299 289 276 263 256 262 264 261 247 251 255 258 257
86 83 79 82 82 76 72 65 57 60 53 51 65 74 69 25 39 63 83 69 47 18 12 23 47 57 19 15 359 324 308 298 291 284 276 271 270 267 262 264 258 256 263
85 87 85 85 85 78 69 61 52 60 60 63 59 59 70 58 52 62 74 70 56 32 20 22 33 17 353 352 339 313 301 297 302 304 295 284 273 266 260 248 247 252 260
88 83 78 80 89 86 68 61 70 70 63 61 66 57 61 71 68 69 78 80 76 39 2 341 331 341 336 328 318 286 277 287 293 289 288 286 280 269 260 250 242 243 252
75 70 62 56 63 77 75 63 70 83 79 71 73 61 49 56 66 68 70 63 60 59 327 308 305 317 317 313 306 290 293 298 287 285 286 285 284 281 274 263 254 249 250
64 52 41 39 36 41 64 67 62 69 81 75 75 69 36 26 30 40 39 28 19 9 308 308 311 311 312 308 299 300 305 299 293 290 287 284 281 282 284 281 273 264 261
61 45 37 37 24 24 33 52 64 62 69 68 70 66 29 18 9 3 359 356 352 344 324 313 310 307 303 296 299 303 296 285 285 283 286 286 286 284 283 281 282 282 280
55 42 35 34 32 28 29 40 62 65 114 113 105 100 73 22 331 336 345 334 324 308 312 312 314 315 315 309 304 299 299 302 300 294 293 294 291 289 286 281 273 273 273
49 32 31 29 29 36 41 40 48 67 74 82 89 94 77 41 358 1 352 341 335 332 340 323 312 309 309 309 310 308 305 302 298 296 296 293 293 293 292 286 275 270 270
57 34 28 26 32 34 45 61 49 39 53 60 62 61 48 20 10 3 355 347 344 350 351 319 312 311 311 312 310 309 307 302 299 297 295 293 293 293 291 287 282 274 270
45 35 37 38 43 46 52 58 66 62 38 20 28 36 29 17 9 7 4 5 354 353 335 321 316 313 310 308 306 304 303 304 302 301 298 296 296 295 294 292 287 280 276
41 34 46 54 55 57 58 60 59 56 50 26 8 5 8 3 6 9 9 7 340 331 326 319 314 311 308 304 302 301 300 300 299 299 297 296 297 296 293 292 292 291 284
38 53 67 67 61 59 55 55 51 47 39 26 14 355 349 0 359 351 352 342 333 324 319 315 313 309 308 305 304 302 302 301 300 299 300 299 297 295 294 293 292 291 287
44 55 69 70 63 61 58 55 50 45 30 13 354 354 6 358 344 338 336 330 324 320 318 316 313 311 309 307 306 306 307 305 304 303 302 300 299 297 295 292 290 288 287
66 69 68 69 61 54 52 49 43 33 15 3 343 342 352 352 336 330 325 322 319 316 313 311 310 308 308 309 309 308 307 307 308 309 306 302 299 296 295 293 293 290 288
73 74 67 58 56 49 45 30 21 10 357 347 338 334 334 332 327 322 320 319 319 319 316 313 310 309 310 310 309 308 308 311 312 309 305 300 297 295 293 292 292 294 294
72 72 66 55 45 39 29 12 2 356 351 340 333 328 325 325 323 322 322 320 320 319 318 318 316 316 319 321 316 312 311 313 312 304 299 293 293 291 290 289 289 291 294
72 70 61 50 36 24 14 2 352 347 341 335 332 328 327 328 327 326 325 325 326 324 325 325 323 324 323 322 322 321 318 311 304 304 300 292 288 287 288 289 291 293 293
73 67 51 36 29 18 8 358 349 344 339 336 334 332 333 335 334 332 331 332 331 328 327 325 326 327 324 323 324 323 316 312 310 307 302 292 288 287 292 292 294 296 296